map of BPS home
Great Circle Mapper logo
BPS - Airport
Location
City:  Porto Seguro, Bahia, Brazil
ICAO / IATA:SBPS / BPS

Details
Type:Airport (Aerodrome, Airfield)
Latitude:1626'19"S (-16.438638)
Longitude:3904'51"W (-39.080916)
Datum:WGS 1984
Elevation:168 ft (51 m)
Variation:23.78W (WMM2015 magnetic declination)
-0.05 annual change
Runways:1
Longest:6562 × 148 ft (2000 × 45 m), paved

Time
Time Zone:UTC-3
Local Time:

Weather
METAR:SBPS 111900Z 06017KT 9999 FEW020 30/23 Q1010
TAF:SBPS 111000Z 1112/1212 05014KT 9999 SCT020 TX31/1115Z TN23/1208Z
BECMG 1200/1201 05006KT
BECMG 1204/1205 26005KT
RMK PCN

Related Locations
Nearby:
Farthest:TIQ: 12119 mi / 19504 km
Tinian Island [Tinian Intl (West Tinian)], MP, US

Find:

   beyond  
but within

Other Information
Maps:
NOTAMs:
Links:
Sources:

  
flag of Brazil
flag of Bahia
  

Sectional Chart

Flight Planning
at skyvector.com

Satellite Image

Google Maps Satellite view

 

Copyright © 2004-2016 Karl L. Swartz. All rights reserved.
The Great Circle Mapper name and logo are trademarks of the Great Circle Mapper.
All other trademarks mentioned herein belong to their respective owners.
Please see credits for attibutions and further copyright information.

  Follow gcmap on Facebook Follow gcmap on Twitter Follow gcmap on Google+ GCmap on LinkedIn

hCard Microformat

Geo Microformat